x

Gravelly Shoals Light Mi (gslm4) Weather Station

4:40am - Sat 27th May 2017 All times are CDT. -5 hours from GMT.

  • Wind
    3mph, 3mph gusts
  • Air Temp 56°f
  • Sea Pressure 1012.9mb
  • Gravelly Shoals Light Mi
  • Gravelly Shoals Light Mi

More Historic Weather Station data

Upgrade to MSW Pro to gain access to the past 30 days of data for over 8000 Wavebouys and Weather Stations around the globe.

Join Pro

Comparision Forecast

View Surf forecast
   
Sat 05/27 4:40am 3 3 mph 1012.9mb 56f
4:30am 2 3 mph 1012.5mb 56f
4:20am 3 3 mph 1012.5mb 56f
4:10am 3 3 mph 1012.9mb 56f
4:01am 3 6 mph 1012.5mb 56f
4:00am 3 5 mph 1012.9mb 56f
3:40am 1 2 mph 1012.5mb 57f
3:30am 1 3 mph 1012.5mb 57f
3:20am 3 5 mph 1012.5mb 57f
3:10am 5 6 mph 1012.5mb 57f
3:00am 2 5 mph 1012.5mb 57f
2:40am  -  2 mph 1012.5mb 56f
2:30am  -  3 mph 1012.5mb 57f
2:20am 3 6 mph 1012.5mb 57f
2:10am 6 7 mph 1012.5mb 57f
2:00am 6 9 mph 1012.5mb 57f
1:40am 6 7 mph 1012.5mb 57f
1:30am 7 8 mph 1012.5mb 58f
1:20am 8 9 mph 1012.5mb 58f
1:10am 8 8 mph 1012.5mb 57f
1:00am 7 13 mph 1012.5mb 57f
12:40am 8 8 mph 1012.9mb 58f
12:30am 8 9 mph 1012.9mb 58f
12:20am 9 10 mph 1012.9mb 58f
12:10am 10 11 mph 1012.5mb 58f
12:00am 11 13 mph 1012.5mb 58f
Fri 05/26 11:40pm 10 11 mph 1012.5mb 57f
11:30pm 10 10 mph 1012.5mb 57f
11:20pm 10 10 mph 1012.5mb 57f
11:10pm 9 11 mph 1012.5mb 57f
11:00pm 10 11 mph 1012.5mb 57f
10:40pm 10 11 mph 1012.5mb 57f
10:30pm 10 11 mph 1012.9mb 57f
10:20pm 9 11 mph 1012.9mb 57f
10:10pm 10 11 mph 1012.9mb 57f
10:00pm 10 11 mph 1012.9mb 57f
9:40pm 10 11 mph 1012.5mb 57f
9:35pm 10 13 mph 1012.5mb 58f
9:30pm 10 11 mph 1012.5mb 58f
9:20pm 9 11 mph 1012.5mb 58f
9:10pm 11 13 mph 1012.2mb 58f
9:00pm 11 13 mph 1011.9mb 58f
8:40pm 9 9 mph 1012.2mb 57f
8:35pm 8 11 mph 1012.2mb 57f
8:20pm 8 10 mph 1012.2mb 57f
8:10pm 10 11 mph 1012.2mb 57f
8:00pm 8 9 mph 1012.2mb 57f
7:40pm 9 9 mph 1012.2mb 57f
7:34pm 8 14 mph 1012.2mb 57f
7:30pm 8 10 mph 1012.2mb 57f
7:20pm 10 11 mph 1011.9mb 57f
7:10pm 9 10 mph 1011.9mb 57f
7:00pm 10 13 mph 1011.9mb 57f
5:40pm 6 8 mph 1011.9mb 59f
5:34pm 6 9 mph 1011.9mb 60f
5:30pm 8 8 mph 1011.9mb 60f
5:20pm 7 8 mph 1011.9mb 60f
5:10pm 6 8 mph 1011.5mb 60f
5:00pm 8 9 mph 1011.5mb 61f
4:40pm 8 8 mph 1011.5mb 59f
4:33pm 8 8 mph 1011.2mb 59f
4:30pm 8 8 mph 1011.2mb 59f
4:20pm 7 8 mph 1011.2mb 59f
4:10pm 8 8 mph 1011.2mb 59f
4:00pm 6 7 mph 1011.2mb 60f
3:40pm 5 8 mph 1011.2mb 61f
3:30pm 5 8 mph 1011.2mb 61f
3:20pm 8 9 mph 1011.2mb 61f
3:00pm 7 9 mph 1011.2mb 60f
2:40pm 6 7 mph 1011.2mb 59f
2:32pm 3 11 mph 1011.2mb 59f
2:30pm 3 8 mph 1011.5mb 59f
2:20pm 7 8 mph 1011.2mb 59f
2:10pm 6 8 mph 1011.2mb 59f
2:00pm 6 11 mph 1011.2mb 58f
1:40pm 8 9 mph 1011.2mb 59f
1:32pm 8 8 mph 1011.2mb 59f
1:30pm 8 8 mph 1011.2mb 59f
1:20pm 7 8 mph 1011.2mb 58f
1:10pm 7 8 mph 1011.2mb 58f
1:00pm 7 8 mph 1011.2mb 58f
12:40pm 5 6 mph 1011.5mb 58f
12:32pm 5 6 mph 1011.2mb 58f
12:30pm 6 6 mph 1011.2mb 58f
12:20pm 3 3 mph 1011.5mb 58f
12:10pm 2 3 mph 1011.5mb 60f
12:00pm  -  1 mph 1011.2mb 59f
11:40am 1 2 mph 1011.2mb 59f
11:31am 2 10 mph 1011.2mb 59f
11:30am 2 3 mph 1011.2mb 59f
11:20am 5 6 mph 1011.2mb 59f
11:10am 5 8 mph 1010.8mb 58f
11:00am 8 8 mph 1010.8mb 58f
10:40am 9 10 mph 1010.8mb 58f
10:31am 9 11 mph 1010.8mb 58f
10:30am 9 11 mph 1010.8mb 58f
10:20am 8 9 mph 1010.5mb 57f
10:10am 8 10 mph 1010.5mb 57f
10:00am 8 9 mph 1010.8mb 57f
9:40am 6 8 mph 1010.5mb 56f
9:30am 9 14 mph 1010.5mb 56f
9:20am 10 14 mph 1010.5mb 56f
9:10am 10 11 mph 1010.2mb 56f
9:00am 10 13 mph 1009.8mb 56f
8:40am 10 13 mph 1009.8mb 56f
8:30am 13 14 mph 1009.8mb 56f
8:20am 10 14 mph 1009.8mb 56f
8:10am 11 14 mph 1010.2mb 56f
8:00am 11 13 mph 1009.8mb 55f
7:40am 10 14 mph 1009.8mb 55f
7:30am 10 11 mph 1009.5mb 55f
7:20am 9 11 mph 1009.5mb 55f
7:10am 9 11 mph 1009.5mb 55f
7:00am 10 11 mph 1009.1mb 55f
6:40am 10 13 mph 1009.1mb 55f
6:30am 10 11 mph 1009.1mb 55f
6:29am 9 13 mph 1009.1mb 55f
6:20am 10 11 mph 1008.8mb 55f
6:10am 10 11 mph 1008.8mb 55f
6:00am 10 13 mph 1008.8mb 55f
5:40am 10 11 mph 1008.5mb 55f
5:30am 10 13 mph 1008.1mb 54f
5:20am 11 13 mph 1008.1mb 54f
5:10am 10 13 mph 1007.8mb 54f
5:00am 9 10 mph 1007.8mb 54f
4:50am 9 10 mph 1007.5mb 54f
4:40am 8 9 mph 1007.5mb 54f
4:28am 8
mph
- 54f
4:20am 10 11 mph 1007.1mb 54f
4:10am 9 10 mph 1007.1mb 54f
4:00am 9 10 mph 1007.1mb 54f
3:50am 8 10 mph 1007.1mb 54f
3:40am 9 10 mph 1007.1mb 54f
3:30am 9 11 mph 1007.1mb 54f
3:28am 9 13 mph 1007.1mb 54f
3:20am 9 9 mph 1006.8mb 54f
3:10am 8 9 mph 1006.8mb 53f
3:00am 8 11 mph 1006.4mb 53f
2:50am 10 13 mph 1006.4mb 53f
2:40am 10 11 mph 1006.4mb 54f
2:30am 11 14 mph 1006.4mb 54f
2:28am 10 14 mph 1006.4mb 54f
2:20am 10 13 mph 1006.1mb 54f
2:10am 9 10 mph 1006.1mb 54f
2:00am 9 10 mph 1005.8mb 53f
1:50am 9 11 mph 1005.8mb 53f
1:40am 9 10 mph 1005.8mb 53f
1:30am 11 11 mph 1005.8mb 53f
1:27am 10 14 mph 1005.8mb 53f
1:20am 9 10 mph 1005.8mb 53f
1:10am 9 11 mph 1005.8mb 53f
1:00am 11 14 mph 1005.8mb 53f
12:50am 11 13 mph 1005.8mb 53f
12:40am 8 11 mph 1005.8mb 53f
12:30am 9 11 mph 1005.8mb 53f
12:27am 10 14 mph 1005.8mb 53f
12:20am 10 13 mph 1005.8mb 53f
12:10am 11 14 mph 1005.8mb 53f
12:00am 10 11 mph 1005.4mb 53f
Thu 05/25 11:50pm 10 11 mph 1005.4mb 53f
11:40pm 9 11 mph 1005.4mb 53f
11:30pm 10 11 mph 1005.4mb 53f
11:26pm 10 14 mph 1005.4mb 53f
11:20pm 10 13 mph 1005.4mb 53f
11:00pm 11 14 mph 1005.4mb 52f
10:50pm 11 13 mph 1005.4mb 52f
10:40pm 10 13 mph 1005.1mb 52f
10:30pm 10 13 mph 1005.1mb 52f
10:26pm 10 16 mph 1005.1mb 52f
10:20pm 11 13 mph 1005.1mb 52f
10:10pm 11 14 mph 1004.7mb 52f
10:00pm 13 15 mph 1004.7mb 52f
9:50pm 14 16 mph 1004.7mb 52f
9:40pm 15 16 mph 1004.7mb 51f
9:30pm 15 17 mph 1004.7mb 51f
9:26pm 15 18 mph 1004.4mb 51f
9:20pm 15 17 mph 1004.4mb 51f
9:10pm 16 18 mph 1004.1mb 51f
9:00pm 15 17 mph 1004.1mb 51f
8:50pm 15 18 mph 1004.1mb 51f
8:40pm 15 18 mph 1004.1mb 51f
8:30pm 17 20 mph 1003.7mb 51f
8:25pm 17 20 mph 1003.7mb 51f
8:20pm 16 18 mph 1003.7mb 51f
8:10pm 16 18 mph 1003.7mb 51f
8:00pm 15 17 mph 1003.4mb 51f
7:50pm 16 20 mph 1003.4mb 50f
7:40pm 16 18 mph 1003.4mb 50f
7:30pm 16 18 mph 1003mb 50f
7:25pm 16 18 mph 1003mb 50f
7:20pm 17 18 mph 1003mb 50f
7:10pm 16 17 mph 1002.7mb 50f
7:00pm 16 18 mph 1002.7mb 50f
6:50pm 15 18 mph 1002.7mb 50f
6:40pm 15 17 mph 1002.7mb 50f
6:24pm 13 16 mph 1002.7mb 49f
5:50pm 13 16 mph 1002.4mb 49f
5:40pm 14 15 mph 1002.4mb 49f
5:30pm 14 16 mph 1002mb 49f
5:24pm 14 18 mph 1002mb 49f
5:20pm 14 16 mph 1002mb 49f
5:10pm 14 16 mph 1002mb 50f
5:00pm 15 16 mph 1001.7mb 50f
4:50pm 15 17 mph 1001.7mb 50f
4:40pm 16 18 mph 1001.7mb 50f
4:30pm 16 18 mph 1001.7mb 51f
4:23pm 17 21 mph 1001.7mb 50f
4:20pm 18 18 mph 1001.7mb 50f
4:10pm 17 21 mph 1001.7mb 51f
4:00pm 18 20 mph 1001.4mb 50f
3:50pm 17 20 mph 1001.4mb 51f
3:40pm 17 20 mph 1001.4mb 51f
3:30pm 17 20 mph 1001.4mb 51f
3:23pm 17 20 mph 1001.4mb 50f
3:20pm 16 20 mph 1001.4mb 50f
3:10pm 17 18 mph 1001.4mb 50f
3:00pm 17 18 mph 1001.4mb 51f
2:50pm 16 17 mph 1001.4mb 50f
2:40pm 16 17 mph 1001.4mb 51f
2:30pm 15 17 mph 1001.4mb 51f
2:23pm 16 18 mph 1001.4mb 51f
2:20pm 16 17 mph 1001.4mb 51f
2:10pm 16 18 mph 1001.4mb 51f
2:00pm 17 18 mph 1001mb 51f
1:50pm 17 18 mph 1001mb 51f
1:40pm 16 18 mph 1001.4mb 51f
1:30pm 16 20 mph 1001.4mb 50f
1:22pm 16 20 mph 1001.4mb 50f
1:20pm 16 18 mph 1001.4mb 50f
1:10pm 15 17 mph 1001.4mb 51f
1:00pm 14 16 mph 1001.7mb 51f
12:50pm 16 18 mph 1001.4mb 50f
12:40pm 17 18 mph 1001.7mb 50f
12:30pm 17 18 mph 1001.4mb 50f
12:22pm 16 20 mph 1001.4mb 50f
12:20pm 15 20 mph 1001.7mb 50f
12:10pm 18 20 mph 1001.4mb 50f
12:00pm 16 20 mph 1001.4mb 50f
11:50am 17 20 mph 1001.4mb 50f
11:40am 17 20 mph 1001.4mb 50f
11:30am 17 20 mph 1001.4mb 50f
11:21am 17 23 mph 1001.4mb 50f
11:20am 17 20 mph 1001.4mb 50f
11:10am 17 20 mph 1001.4mb 50f
11:00am 17 20 mph 1001mb 50f
10:50am 16 21 mph 1001mb 50f
10:40am 18 21 mph 1001mb 50f
10:30am 20 23 mph 1001.4mb 50f
10:21am 18 22 mph 1001mb 50f
10:20am 18 22 mph 1001.4mb 50f
10:10am 18 21 mph 1001.4mb 49f
10:00am 17 20 mph 1001.4mb 49f
9:50am 18 20 mph 1001.4mb 49f
9:40am 18 20 mph 1001.7mb 49f
9:30am 18 20 mph 1001.7mb 49f
9:21am 17 21 mph 1001.7mb 49f
9:20am 17 21 mph 1001.7mb 49f
9:10am 18 21 mph 1001.4mb 49f
9:00am 18 20 mph 1001.7mb 49f
8:50am 18 20 mph 1001.7mb 49f
8:40am 17 20 mph 1001.7mb 49f
8:30am 16 18 mph 1001.7mb 49f
8:20am 16 18 mph 1001.7mb 49f
8:10am 15 17 mph 1002mb 49f
8:00am 16 17 mph 1002mb 49f
7:50am 16 18 mph 1002mb 49f
7:40am 15 17 mph 1002mb 49f
7:30am 15 18 mph 1002mb 49f
7:20am 16 18 mph 1002mb 49f
7:10am 17 20 mph 1002mb 49f
7:00am 20 21 mph 1001.7mb 49f
6:50am 18 20 mph 1002mb 49f
6:40am 18 21 mph 1002mb 49f
6:30am 18 21 mph 1002mb 49f
6:20am 17 20 mph 1001.7mb 49f
6:19am 29
mph
- 50f
6:10am 17 20 mph 1001.7mb 50f
6:00am 16 20 mph 1001.7mb 49f
5:50am 18 23 mph 1001.4mb 49f
5:40am 22 24 mph 1001.4mb 49f
5:30am 22 24 mph 1001.4mb 50f
5:20am 20 23 mph 1001.4mb 50f
5:19am 21 24 mph 1001.4mb 51f
5:10am 20 23 mph 1001.7mb 51f
5:00am 21 23 mph 1001.4mb 51f
4:50am 20 24 mph 1001.7mb 51f
4:40am 18 22 mph 1001.7mb 51f
4:30am 21 24 mph 1001.7mb 51f
4:20am 21 25 mph 1001.7mb 52f
4:19am 21 28 mph 1001.7mb 52f
4:10am 22 25 mph 1001.7mb 52f
4:00am 21 28 mph 1001.4mb 53f
3:50am 22 26 mph 1001.4mb 53f
3:40am 23 26 mph 1001.4mb 53f
3:30am 21 23 mph 1001.7mb 52f
3:20am 18 21 mph 1002mb 52f
3:18am 18 24 mph 1002mb 52f
3:10am 17 21 mph 1002mb 52f
3:00am 17 21 mph 1002mb 51f
2:50am 20 24 mph 1002mb 51f
2:40am 18 23 mph 1002mb 51f
2:30am 20 23 mph 1002.4mb 51f
2:20am 21 24 mph 1002mb 51f
2:18am 21 24 mph 1002mb 51f
2:10am 20 22 mph 1002.4mb 51f
2:00am 18 22 mph 1002.4mb 52f
1:50am 17 23 mph 1002.4mb 52f
1:40am 17 20 mph 1002.4mb 52f
1:30am 17 20 mph 1002.7mb 52f
1:20am 17 20 mph 1002.7mb 52f
1:17am 16 21 mph 1002.7mb 51f
1:10am 17 20 mph 1002.7mb 51f
1:00am 16 20 mph 1003mb 51f
12:50am 18 21 mph 1003mb 51f
12:40am 16 20 mph 1003.4mb 51f
12:30am 18 20 mph 1003mb 51f
12:20am 17 20 mph 1003.4mb 51f
12:17am 17 20 mph 1003.4mb 51f
12:10am 16 17 mph 1003.4mb 51f
12:00am 14 17 mph 1003.7mb 51f
Wed 05/24 11:50pm 14 17 mph 1003.7mb 51f
11:40pm 16 18 mph 1003.4mb 51f
11:30pm 17 20 mph 1003.4mb 50f
11:20pm 16 18 mph 1003.7mb 50f
11:10pm 15 18 mph 1003.4mb 50f
11:00pm 17 20 mph 1003.4mb 50f
10:50pm 16 18 mph 1003.4mb 50f
10:40pm 16 17 mph 1003.7mb 50f
10:30pm 15 18 mph 1003.7mb 50f
10:20pm 15 16 mph 1003.7mb 50f
10:10pm 15 17 mph 1004.1mb 50f
10:00pm 15 16 mph 1004.1mb 50f
9:50pm 14 15 mph 1004.1mb 50f
9:40pm 13 15 mph 1004.1mb 50f
9:30pm 14 17 mph 1004.1mb 50f
9:20pm 14 16 mph 1004.1mb 50f
9:16pm 15 20 mph 1004.1mb 50f
9:10pm 15 17 mph 1004.1mb 51f
9:00pm 17 18 mph 1004.1mb 51f
8:50pm 16 20 mph 1004.1mb 50f
8:40pm 16 18 mph 1004.1mb 50f
8:30pm 18 20 mph 1003.7mb 50f
8:20pm 17 20 mph 1003.7mb 51f
8:15pm 17 24 mph 1003.7mb 51f
8:10pm 17 23 mph 1004.1mb 51f
8:00pm 21 24 mph 1003.7mb 51f
7:50pm 21 24 mph 1003.7mb 52f
7:40pm 21 24 mph 1003.7mb 52f
7:30pm 21 24 mph 1003.7mb 52f
7:20pm 20 24 mph 1004.1mb 52f
7:15pm 20 25 mph 1004.1mb 52f
7:10pm 18 23 mph 1004.1mb 52f
7:00pm 20 23 mph 1004.1mb 52f
6:50pm 21 25 mph 1004.1mb 52f
6:15pm 22 28 mph 1003.7mb 52f
5:50pm 21 25 mph 1003.7mb 51f
5:40pm 23 25 mph 1003.7mb 51f
5:30pm 24 28 mph 1003.7mb 52f
5:20pm 21 24 mph 1004.1mb 52f
5:14pm 21 28 mph 1004.1mb 52f
5:10pm 22 28 mph 1004.1mb 52f
5:00pm 23 26 mph 1003.7mb 52f
4:50pm 22 26 mph 1003.7mb 52f
4:40pm 21 25 mph 1003.7mb 51f
4:30pm 21 26 mph 1003.7mb 51f
4:20pm 24 28 mph 1003.7mb 51f
4:14pm 23 28 mph 1004.1mb 51f
4:10pm 24 26 mph 1004.1mb 51f
4:00pm 23 26 mph 1004.1mb 51f
3:50pm 24 26 mph 1004.1mb 51f
3:40pm 23 28 mph 1004.1mb 51f
3:30pm 23 28 mph 1004.1mb 51f
3:20pm 23 28 mph 1004.1mb 51f
3:13pm 23 28 mph 1004.1mb 51f
3:10pm 24 26 mph 1004.1mb 51f
3:00pm 24 28 mph 1003.7mb 51f
2:50pm 24 28 mph 1003.7mb 51f
2:40pm 21 24 mph 1004.1mb 51f
2:30pm 21 24 mph 1004.1mb 51f
2:20pm 21 24 mph 1004.4mb 51f
2:13pm 22 26 mph 1004.4mb 50f
2:10pm 21 25 mph 1004.4mb 50f
2:00pm 22 24 mph 1004.4mb 50f
1:50pm 23 25 mph 1004.7mb 50f
1:40pm 23 26 mph 1004.4mb 50f
1:30pm 24 25 mph 1004.4mb 50f
1:20pm 24 26 mph 1004.7mb 50f
1:13pm 23 26 mph 1004.7mb 50f
1:10pm 24 25 mph 1004.7mb 50f
1:00pm 23 25 mph 1004.7mb 50f
12:50pm 21 24 mph 1004.7mb 50f
12:40pm 23 26 mph 1004.7mb 50f
12:30pm 23 25 mph 1004.7mb 50f
12:20pm 23 26 mph 1004.7mb 50f
12:12pm 24
mph
1004.7mb 50f
12:10pm 24 28 mph 1004.7mb 50f
12:00pm 24 28 mph 1004.7mb 50f
11:50am 25 29 mph 1004.7mb 50f
11:40am 25 30 mph 1004.7mb 50f
11:30am 25 29 mph 1004.7mb 50f
11:20am 24 28 mph 1005.1mb 50f
11:12am 25 29 mph 1004.7mb 50f
11:10am 26 29 mph 1004.7mb 50f
11:00am 25 29 mph 1004.7mb 50f
10:50am 25 28 mph 1005.1mb 50f
10:40am 23 26 mph 1005.1mb 50f
10:30am 23 25 mph 1005.4mb 50f
10:20am 23 24 mph 1005.4mb 50f
10:11am 22 25 mph 1005.4mb 51f
10:10am 22 25 mph 1005.8mb 51f
10:00am 23 25 mph 1005.4mb 51f
9:50am 23 25 mph 1005.4mb 51f
9:40am 23 25 mph 1005.4mb 51f
9:30am 22 24 mph 1005.4mb 51f
9:20am 21 23 mph 1005.4mb 51f
9:11am 21 23 mph 1005.8mb 51f
9:10am 21 23 mph 1005.8mb 51f
9:00am 20 21 mph 1005.8mb 51f
8:50am 18 21 mph 1005.8mb 51f
8:40am 20 22 mph 1005.8mb 51f
8:30am 20 21 mph 1005.8mb 51f
8:20am 18 21 mph 1005.8mb 51f
8:10am 18 21 mph 1005.8mb 51f
8:00am 17 22 mph 1005.8mb 51f
7:50am 17 21 mph 1005.8mb 51f
7:40am 18 21 mph 1005.8mb 51f
7:30am 17 20 mph 1005.8mb 51f
7:20am 16 20 mph 1006.1mb 51f
7:10am 17 20 mph 1006.1mb 51f
7:00am 18 21 mph 1006.1mb 50f
6:50am 18 21 mph 1006.1mb 50f
6:40am 17 20 mph 1006.1mb 50f
6:30am 16 18 mph 1006.1mb 51f
6:20am 15 18 mph 1006.1mb 51f
6:10am 16 20 mph 1005.8mb 50f
6:00am 16 18 mph 1005.8mb 51f
5:50am 17 18 mph 1005.8mb 50f
5:40am 16 17 mph 1005.8mb 51f
5:30am 16 17 mph 1005.8mb 51f
5:20am 16 20 mph 1005.8mb 51f
5:10am 15 16 mph 1005.8mb 51f
5:09am 15 16 mph - 51f
5:00am 14 15 mph 1005.8mb 51f
4:50am 13 15 mph 1005.8mb 51f
4:40am 13 15 mph 1006.1mb 51f
4:30am 13 14 mph 1006.1mb 51f
4:20am 13 14 mph 1006.4mb 51f
4:10am 13 15 mph 1006.4mb 51f
4:09am 13 15 mph 1006.4mb 51f
4:00am 13 14 mph 1006.4mb 51f
3:50am 13 14 mph 1006.4mb 51f
3:40am 13 14 mph 1006.4mb 51f
3:30am 13 13 mph 1006.4mb 51f
3:20am 13 14 mph 1006.4mb 51f
3:10am 13 14 mph 1006.4mb 50f
3:08am 13 14 mph 1006.4mb 50f
3:00am 13 14 mph 1006.4mb 50f
2:50am 14 14 mph 1006.4mb 50f
2:40am 13 14 mph 1006.4mb 50f
2:30am 13 13 mph 1006.4mb 50f
2:20am 11 13 mph 1006.8mb 51f
2:10am 10 11 mph 1006.8mb 51f
2:08am 10 11 mph 1006.8mb 51f
2:00am 10 11 mph 1006.8mb 51f
1:50am 9 10 mph 1006.8mb 51f
1:40am 8 9 mph 1007.1mb 51f
1:30am 8 9 mph 1007.1mb 51f
1:20am 9 10 mph 1007.1mb 50f
1:10am 9 10 mph 1007.1mb 50f
1:08am 9 14 mph 1007.1mb 50f
1:00am 9 10 mph 1007.1mb 50f
12:50am 9 11 mph 1007.1mb 50f
12:40am 11 14 mph 1007.1mb 50f
12:30am 13 14 mph 1006.8mb 50f
12:20am 11 13 mph 1007.1mb 50f
12:10am 10 10 mph 1007.5mb 52f
12:07am 10 11 mph 1007.1mb 52f
12:00am 10 11 mph 1007.1mb 52f
Tue 05/23 11:50pm 11 11 mph 1007.1mb 52f
11:40pm 9 9 mph 1007.5mb 53f
11:30pm 8 10 mph 1007.8mb 53f
11:20pm 9 10 mph 1007.8mb 53f
11:10pm 9 10 mph 1007.8mb 53f
11:07pm 9 14 mph 1007.8mb 54f
11:00pm 9 13 mph 1007.8mb 54f
10:50pm 13 14 mph 1007.8mb 56f
10:40pm 10 11 mph 1008.1mb 57f
10:30pm 10 10 mph 1008.8mb 57f
10:20pm 10 11 mph 1008.8mb 57f
10:10pm 11 14 mph 1008.8mb 57f
10:06pm 11 14 mph 1009.1mb 57f
10:00pm 13 14 mph 1009.1mb 57f
9:50pm 11 13 mph 1009.1mb 57f
9:40pm 8 8 mph 1009.1mb 55f
9:30pm 7 7 mph 1009.1mb 54f
9:20pm 7 8 mph 1008.8mb 53f
9:10pm 8 8 mph 1008.8mb 53f
9:06pm 7 8 mph 1008.8mb 54f
9:00pm 8 8 mph 1008.8mb 53f
8:50pm 6 6 mph 1008.8mb 54f
8:40pm 3 6 mph 1008.8mb 55f
8:30pm 5 6 mph 1008.5mb 55f
8:20pm 5 5 mph 1008.8mb 55f
8:10pm 5 6 mph 1008.8mb 55f
8:06pm 5 9 mph 1008.8mb 55f
8:00pm 5 6 mph 1009.1mb 55f
7:50pm 5 6 mph 1009.1mb 55f
7:40pm 6 8 mph 1008.8mb 55f
7:30pm 7 7 mph 1008.8mb 54f
7:20pm 8 9 mph 1008.8mb 54f
7:10pm 8 9 mph 1008.8mb 54f
7:05pm 8 9 mph 1008.8mb 54f
7:00pm 9 9 mph 1009.1mb 54f
6:50pm 8 8 mph 1009.1mb 54f
6:05pm 8 17 mph 1009.1mb 52f
5:50pm 8 10 mph 1009.1mb 52f
5:40pm 11 14 mph 1009.1mb 52f
5:30pm 13 14 mph 1009.1mb 54f
5:20pm 10 17 mph 1008.8mb 56f
5:10pm 11 15 mph 1008.8mb 56f
5:04pm 9 13 mph 1008.5mb 57f
5:00pm 10 11 mph 1008.5mb 57f
4:50pm 10 11 mph 1008.5mb 58f
4:40pm 9 13 mph 1008.5mb 59f
4:30pm 13 13 mph 1008.5mb 58f
4:20pm 10 10 mph 1008.5mb 58f
4:10pm 9 10 mph 1008.5mb 58f
4:04pm 9 11 mph 1008.5mb 59f
4:00pm 10 11 mph 1008.5mb 59f
3:50pm 9 9 mph 1008.5mb 59f
3:40pm 8 9 mph 1008.5mb 59f
3:30pm 9 9 mph 1008.5mb 59f
3:20pm 8 9 mph 1008.5mb 59f
3:10pm 7 10 mph 1008.5mb 60f
3:04pm 9 13 mph 1008.5mb 60f
3:00pm 9 10 mph 1008.8mb 60f
2:50pm 9 13 mph 1009.1mb 59f
2:40pm 10 11 mph 1009.1mb 60f
2:30pm 7 8 mph 1009.1mb 60f
2:20pm 7 8 mph 1009.5mb 60f
2:10pm  -  3 mph 1009.1mb 60f
2:03pm 3 8 mph 1009.5mb 60f
2:00pm 3 6 mph 1009.5mb 60f
1:50pm 6 6 mph 1009.8mb 59f
1:40pm 5 7 mph 1009.8mb 59f
1:30pm 6 7 mph 1010.2mb 60f
1:20pm 5 8 mph 1010.2mb 60f
1:10pm 8 8 mph 1010.2mb 60f
1:03pm 6 9 mph 1010.2mb 60f
1:00pm 3 6 mph 1010.2mb 60f
12:50pm 5 7 mph 1010.2mb 60f
12:40pm 3 7 mph 1010.5mb 59f
12:30pm 5 9 mph 1010.5mb 58f
12:20pm 8 9 mph 1010.5mb 58f
12:10pm 7 8 mph 1010.5mb 58f
12:02pm 7 9 mph 1010.5mb 58f
12:00pm 6 9 mph 1010.8mb 58f
11:50am 8 9 mph 1010.8mb 58f
11:40am 6 7 mph 1010.8mb 58f
11:30am 5 7 mph 1011.2mb 58f
11:20am 6 6 mph 1011.2mb 58f
11:10am 3 6 mph 1010.8mb 58f
11:02am 3 7 mph 1011.2mb 58f
11:00am 5 7 mph 1011.2mb 58f
10:50am 3 5 mph 1011.2mb 58f